TimeEST,TemperatureF,Dew PointF,Humidity,Sea Level PressureIn,VisibilityMPH,Wind Direction,Wind SpeedMPH,Gust SpeedMPH,PrecipitationIn,Events,Conditions,WindDirDegrees,DateUTC
12:53 AM,48.9,45.0,86,30.45,7.0,NE,8.1,-,N/A,,Mostly Cloudy,40,2013-01-10 05:53:00
1:53 AM,48.2,44.6,87,30.44,8.0,NE,6.9,-,N/A,,Scattered Clouds,40,2013-01-10 06:53:00
2:53 AM,48.0,45.0,89,30.45,7.0,NNE,8.1,-,N/A,,Clear,30,2013-01-10 07:53:00
3:53 AM,48.0,46.0,93,30.45,7.0,NNE,6.9,-,N/A,,Mostly Cloudy,20,2013-01-10 08:53:00
4:53 AM,46.4,44.6,93,30.43,6.0,NNE,4.6,-,N/A,,Scattered Clouds,30,2013-01-10 09:53:00
5:53 AM,48.0,45.0,89,30.42,6.0,NNE,8.1,-,N/A,,Partly Cloudy,20,2013-01-10 10:53:00
6:53 AM,46.9,45.0,93,30.42,6.0,NNE,6.9,-,N/A,,Scattered Clouds,20,2013-01-10 11:53:00
7:53 AM,48.0,45.0,89,30.42,6.0,NNE,8.1,-,N/A,,Partly Cloudy,30,2013-01-10 12:53:00
8:53 AM,48.9,46.0,90,30.42,6.0,NE,9.2,-,N/A,,Partly Cloudy,40,2013-01-10 13:53:00
9:53 AM,51.1,46.9,86,30.43,9.0,NNE,10.4,-,N/A,,Mostly Cloudy,30,2013-01-10 14:53:00
10:53 AM,53.1,48.0,83,30.42,10.0,NE,8.1,-,N/A,,Mostly Cloudy,40,2013-01-10 15:53:00
11:53 AM,55.9,48.9,77,30.38,10.0,NE,9.2,-,N/A,,Mostly Cloudy,40,2013-01-10 16:53:00
12:53 PM,57.9,48.9,72,30.34,10.0,NNE,8.1,-,N/A,,Mostly Cloudy,20,2013-01-10 17:53:00
1:53 PM,61.0,50.0,67,30.32,10.0,NNE,6.9,-,N/A,,Mostly Cloudy,20,2013-01-10 18:53:00
2:53 PM,61.0,50.0,67,30.30,10.0,NE,5.8,-,N/A,,Mostly Cloudy,40,2013-01-10 19:53:00
3:53 PM,62.1,50.0,65,30.30,10.0,NNE,4.6,-,N/A,,Mostly Cloudy,30,2013-01-10 20:53:00
4:53 PM,60.1,51.1,72,30.30,10.0,NNE,4.6,-,N/A,,Mostly Cloudy,20,2013-01-10 21:53:00
5:53 PM,57.9,51.1,78,30.27,10.0,NE,5.8,-,N/A,,Mostly Cloudy,40,2013-01-10 22:53:00
6:53 PM,57.0,51.1,81,30.27,10.0,NW,3.5,-,N/A,,Overcast,320,2013-01-10 23:53:00
7:53 PM,55.0,50.0,83,30.24,10.0,North,3.5,-,N/A,,Overcast,350,2013-01-11 00:53:00
8:53 PM,54.0,48.9,83,30.23,10.0,Calm,Calm,-,N/A,,Clear,0,2013-01-11 01:53:00
9:53 PM,55.0,50.0,83,30.19,10.0,Calm,Calm,-,N/A,,Overcast,0,2013-01-11 02:53:00
10:53 PM,62.1,51.1,67,30.18,10.0,SSE,12.7,-,N/A,,Mostly Cloudy,160,2013-01-11 03:53:00